WATER LEVELS

Guaranteed water level and forecast    Ústí nad Labem-Střekov

Guaranteed water level
Nad 275 cm
on 23.01.2018 more information
Forecast
300 cm
on 24.01.2018 07:00
Tendency
steady state
on 24.01.2018 metodika tendence
Forecast
(Source data ČHMÚ a Povodí Labe)

Ústí nad Labem

Date and time (UTC) H (cm) Q (m3/s)
24. 1. 2018 03:30 296 399
24. 1. 2018 03:00 296 399
24. 1. 2018 02:00 296 399
24. 1. 2018 01:00 296 399
24. 1. 2018 00:00 296 399
23. 1. 2018 23:00 295 397
23. 1. 2018 22:00 295 397
23. 1. 2018 21:00 294 394
23. 1. 2018 20:00 293 392
23. 1. 2018 19:00 294 394
23. 1. 2018 18:00 294 394
23. 1. 2018 17:00 295 397
23. 1. 2018 16:00 296 399
23. 1. 2018 15:00 302 414

H - water level, Q - discharge
more information

Mělník

Date and time (UTC) H (cm) Q (m3/s)
24. 1. 2018 03:30 288 -
24. 1. 2018 03:00 289 -
24. 1. 2018 02:00 290 -
24. 1. 2018 01:00 289 -
24. 1. 2018 00:00 289 -
23. 1. 2018 23:00 290 -
23. 1. 2018 22:00 288 -
23. 1. 2018 21:00 287 -
23. 1. 2018 20:00 286 -
23. 1. 2018 19:00 286 -
23. 1. 2018 18:00 287 -
23. 1. 2018 17:00 289 -
23. 1. 2018 16:00 289 -
23. 1. 2018 15:00 290 -

H - water level, Q - discharge
more information

Kostelec nad Labem

Date and time (UTC) H (cm) Q (m3/s)
24. 1. 2018 03:45 - 112
24. 1. 2018 03:00 421 112
24. 1. 2018 02:00 421 111
24. 1. 2018 01:00 422 113
24. 1. 2018 00:00 422 112
23. 1. 2018 23:00 422 113
23. 1. 2018 22:00 422 -
23. 1. 2018 21:00 422 113
23. 1. 2018 20:00 422 113
23. 1. 2018 19:00 422 114
23. 1. 2018 18:00 422 113
23. 1. 2018 17:00 422 112
23. 1. 2018 16:00 422 112
23. 1. 2018 15:00 422 112

H - water level, Q - discharge
more information

Přelouč

Date and time (UTC) H (cm) Q (m3/s)
24. 1. 2018 03:30 107 67
24. 1. 2018 03:00 108 68
24. 1. 2018 02:00 107 67
24. 1. 2018 01:00 107 67
24. 1. 2018 00:00 107 67
23. 1. 2018 23:00 108 68
23. 1. 2018 22:00 108 68
23. 1. 2018 21:00 108 68
23. 1. 2018 20:00 108 68
23. 1. 2018 19:00 108 68
23. 1. 2018 18:00 108 68
23. 1. 2018 17:00 108 68
23. 1. 2018 16:00 108 68
23. 1. 2018 15:00 108 68

H - water level, Q - discharge
more information

Praha-Chuchle

Date and time (UTC) H (cm) Q (m3/s)
24. 1. 2018 03:30 81 205
24. 1. 2018 03:00 81 205
24. 1. 2018 02:00 81 205
24. 1. 2018 01:00 81 205
24. 1. 2018 00:00 81 205
23. 1. 2018 23:00 81 205
23. 1. 2018 22:00 81 205
23. 1. 2018 21:00 81 205
23. 1. 2018 20:00 81 205
23. 1. 2018 19:00 81 205
23. 1. 2018 18:00 81 205
23. 1. 2018 17:00 82 210
23. 1. 2018 16:00 82 210
23. 1. 2018 15:00 82 210

H - water level, Q - discharge
more information

České Budějovice

Date and time (UTC) H (cm) Q (m3/s)
24. 1. 2018 03:30 116 35
24. 1. 2018 03:00 116 34
24. 1. 2018 02:00 115 35
24. 1. 2018 01:00 116 35
24. 1. 2018 00:00 114 33
23. 1. 2018 23:00 115 33
23. 1. 2018 22:00 116 31
23. 1. 2018 21:00 115 32
23. 1. 2018 20:00 115 33
23. 1. 2018 19:00 115 34
23. 1. 2018 18:00 116 34
23. 1. 2018 17:00 115 33
23. 1. 2018 16:00 115 32
23. 1. 2018 15:00 113 28

H - water level, Q - discharge
more information
Source data
Labe Basin Vltava Basin ČHMÚ